FW4154 Weather Reports


time (UTC)temp
C
wind
direction
speed
KPH
gust
KPH
rain 1hr
cm
rain 24hr
cm
rain mn
cm
humidity
%
barometer
mb
20260509235342 19 259 6.4 12.9 0.00 0.00 0.00 62 1000.2
20260509234340 19 277 6.4 11.3 0.00 0.00 0.00 61 1000.2
20260509233335 19 274 4.8 14.5 0.00 0.00 0.00 63 1000.2
20260509232337 19 251 3.2 14.5 0.00 0.00 0.00 62 1000.2
20260509231832 19 310 6.4 16.1 0.00 0.00 0.00 61 1000.2
20260509230835 19 340 8.0 14.5 0.00 0.00 0.00 63 1000.2
20260509225843 19 275 4.8 16.1 0.00 0.00 0.00 62 1000.2
20260509225340 19 275 3.2 16.1 0.00 0.00 0.00 64 1000.2
20260509224835 19 325 6.4 16.1 0.00 0.00 0.00 64 1000.2
20260509223840 18 309 8.0 19.3 0.00 0.00 0.00 65 1000.2
20260509223333 19 267 12.9 20.9 0.00 0.00 0.00 62 1000.2
20260509222332 19 302 9.7 17.7 0.00 0.00 0.00 61 1000.2
20260509221335 19 309 8.0 16.1 0.00 0.00 0.00 60 1000.2
20260509220347 19 327 12.9 20.9 0.00 0.00 0.00 59 1000.2
20260509215343 19 317 8.0 17.7 0.00 0.00 0.00 60 1000.2
20260509214835 19 279 6.4 16.1 0.00 0.00 0.00 61 1000.2
20260509214324 19 330 11.3 16.1 0.00 0.00 0.00 60 1000.2
20260509213341 20 329 9.7 17.7 0.00 0.00 0.00 60 1000.2
20260509212826 20 281 4.8 14.5 0.00 0.00 0.00 62 1000.2
20260509211839 20 304 4.8 16.1 0.00 0.00 0.00 62 1000.2
20260509211337 19 281 6.4 25.7 0.00 0.00 0.00 63 1000.2
20260509210341 19 258 4.8 17.7 0.00 0.00 0.00 66 1000.2
20260509205837 19 209 8.0 17.7 0.00 0.00 0.00 66 1000.2
20260509204839 18 234 4.8 11.3 0.00 0.00 0.00 67 1000.2
20260509204336 18 323 4.8 14.5 0.00 0.00 0.00 66 1000.2
20260509203344 18 216 6.4 9.7 0.00 0.00 0.00 71 1000.2
20260509202338 18 227 4.8 14.5 0.00 0.00 0.00 68 1000.2
20260509201830 17 163 8.0 14.5 0.00 0.00 0.00 72 1000.2
20260509201327 17 163 6.4 11.3 0.00 0.00 0.00 73 1000.2
20260509200333 17 202 1.6 11.3 0.00 0.00 0.00 72 1000.2
20260509194850 17 285 6.4 11.3 0.00 0.00 0.00 73 1000.2
20260509194345 17 172 6.4 9.7 0.00 0.00 0.00 75 1000.2
20260509193843 17 169 3.2 11.3 0.00 0.00 0.00 71 1000.2
20260509192843 17 270 4.8 12.9 0.00 0.00 0.00 70 1000.2
20260509192342 17 222 8.0 14.5 0.00 0.00 0.00 77 1000.2
20260509191341 17 174 8.0 9.7 0.00 0.00 0.00 74 1000.2
20260509190345 16 184 6.4 9.7 0.00 0.00 0.00 74 1000.2
20260509185842 16 158 3.2 11.3 0.00 0.00 0.00 74 1000.2
20260509185341 16 157 6.4 11.3 0.00 0.00 0.00 76 1000.2
20260509184835 16 157 6.4 11.3 0.00 0.00 0.00 78 1000.2
20260509183841 16 148 4.8 11.3 0.00 0.00 0.00 75 1000.2
20260509183335 16 148 6.4 11.3 0.00 0.00 0.00 74 1000.2
20260509182334 16 178 8.0 9.7 0.00 0.00 0.00 75 1000.2
20260509181335 16 149 3.2 4.8 0.00 0.00 0.00 74 1000.2
20260509180831 16 149 1.6 3.2 0.00 0.00 0.00 75 1000.2
20260509175841 15 149 1.6 4.8 0.00 0.00 0.00 76 1000.2
20260509174839 15 149 4.8 9.7 0.00 0.00 0.00 79 1000.2
20260509174332 15 150 6.4 11.3 0.00 0.00 0.00 79 1000.2
20260509173833 15 150 6.4 11.3 0.00 0.00 0.00 82 1000.2
20260509172848 14 165 8.0 11.3 0.00 0.00 0.00 84 1000.2
20260509171843 14 166 8.0 9.7 0.00 0.00 0.00 85 1000.2
20260509170841 13 165 6.4 9.7 0.00 0.00 0.00 85 1000.2
20260509165841 13 164 8.0 9.7 0.00 0.00 0.00 87 1000.2
20260509165331 13 164 6.4 9.7 0.00 0.00 0.00 88 1000.2
20260509163831 13 171 6.4 8.0 0.00 0.00 0.00 85 1000.2
20260509162856 13 177 3.2 6.4 0.00 0.00 0.00 85 1000.2
20260509162341 13 177 3.2 6.4 0.00 0.00 0.00 86 1000.2
20260509161837 13 177 3.2 6.4 0.00 0.00 0.00 88 1000.2
20260509160839 12 175 4.8 8.0 0.00 0.00 0.00 89 1000.2
20260509160330 12 175 6.4 9.7 0.00 0.00 0.00 89 1000.2
20260509155342 12 160 4.8 9.7 0.00 0.00 0.00 88 1000.2
20260509154332 13 44 1.6 6.4 0.00 0.00 0.00 83 1000.2
20260509153338 12 46 3.2 4.8 0.00 0.00 0.00 85 1000.2
20260509151833 12 69 1.6 3.2 0.00 0.00 0.00 87 1000.2
20260509150831 11 69 0.0 4.8 0.00 0.00 0.00 87 1000.2
20260509145844 11 69 0.0 4.8 0.00 0.00 0.00 89 1000.2
20260509145327 11 360 1.6 4.8 0.00 0.00 0.00 90 1000.2
20260509144342 10 360 3.2 6.4 0.00 0.00 0.00 90 1000.2
20260509143346 10 360 3.2 8.0 0.00 0.00 0.00 92 1000.2
20260509142832 10 360 3.2 8.0 0.00 0.00 0.00 92 1000.2
20260509142331 9 360 3.2 6.4 0.00 0.00 0.00 92 1000.2
20260509141349 9 360 4.8 8.0 0.00 0.00 0.00 93 1000.2
20260509140345 8 360 4.8 8.0 0.00 0.00 0.00 93 1000.2
20260509135837 8 360 4.8 8.0 0.00 0.00 0.00 93 1000.2
20260509134841 8 360 3.2 6.4 0.00 0.00 0.00 94 1000.2
20260509134323 8 360 3.2 4.8 0.00 0.00 0.00 94 1000.2
20260509133333 7 360 0.0 0.0 0.00 0.00 0.00 94 1000.2
20260509132343 7 360 0.0 0.0 0.00 0.00 0.00 95 1000.2
20260509131343 7 360 0.0 3.2 0.00 0.00 0.00 94 1000.2
20260509130833 7 360 0.0 3.2 0.00 0.00 0.00 94 1000.2
20260509125828 7 360 1.6 6.4 0.00 0.00 0.00 94 1000.2
20260509124835 7 360 1.6 6.4 0.00 0.00 0.00 94 1000.2
20260509123836 7 360 3.2 6.4 0.00 0.00 0.00 94 1000.2
20260509122837 7 360 3.2 6.4 0.00 0.00 0.00 94 1000.2
20260509121844 7 360 1.6 6.4 0.00 0.00 0.00 94 1000.2
20260509121334 7 360 1.6 4.8 0.00 0.00 0.00 94 1000.2
20260509120833 7 360 0.0 4.8 0.00 0.00 0.00 93 1000.2
20260509120332 7 360 1.6 3.2 0.00 0.00 0.00 93 1000.2
20260509115826 8 360 1.6 3.2 0.00 0.00 0.00 93 1000.2
20260509114837 8 360 1.6 3.2 0.00 0.00 0.00 94 1000.2
20260509113845 8 360 1.6 4.8 0.00 0.00 0.00 94 1000.2
20260509113341 8 360 1.6 6.4 0.00 0.00 0.00 94 1000.2
20260509112826 8 360 4.8 6.4 0.00 0.00 0.00 94 1000.2
20260509111828 8 360 3.2 6.4 0.00 0.00 0.00 94 1000.2
20260509110836 8 360 0.0 0.0 0.00 0.00 0.00 94 1000.2
20260509105848 8 360 0.0 0.0 0.00 0.00 0.00 94 1000.2
20260509105331 8 360 0.0 0.0 0.00 0.00 0.00 94 1000.2
20260509104340 8 360 0.0 0.0 0.00 0.00 0.00 94 1000.2
20260509103335 8 360 0.0 0.0 0.00 0.00 0.00 93 1000.2
20260509101334 8 360 1.6 3.2 0.00 0.00 0.00 93 1000.2
20260509100334 8 360 0.0 3.2 0.00 0.00 0.00 93 1000.2
20260509095345 8 360 1.6 4.8 0.00 0.00 0.00 93 1000.2
20260509094839 8 360 1.6 4.8 0.00 0.00 0.00 93 1000.2
20260509093842 8 360 0.0 4.8 0.00 0.00 0.00 93 1000.2
20260509092833 8 360 0.0 3.2 0.00 0.00 0.00 92 1000.2
20260509091846 9 360 0.0 3.2 0.00 0.00 0.00 92 1000.2
20260509091338 9 360 1.6 3.2 0.00 0.00 0.00 92 1000.2
20260509090338 9 360 0.0 3.2 0.00 0.00 0.00 92 1000.2
20260509085348 9 360 0.0 4.8 0.00 0.00 0.00 92 1000.2
20260509084829 9 360 1.6 4.8 0.00 0.00 0.00 91 1000.2
20260509083830 9 360 1.6 4.8 0.00 0.00 0.00 92 1000.2
20260509082849 9 360 0.0 3.2 0.00 0.00 0.00 92 1000.2
20260509082345 9 360 0.0 3.2 0.00 0.00 0.00 92 1000.2
20260509081341 9 360 0.0 3.2 0.00 0.00 0.00 92 1000.2
20260509080823 9 360 1.6 3.2 0.00 0.00 0.00 92 1000.2
20260509075831 9 360 0.0 3.2 0.00 0.00 0.00 91 1000.2
20260509075328 10 360 1.6 3.2 0.00 0.00 0.00 91 1000.2
20260509074345 10 360 1.6 3.2 0.00 0.00 0.00 91 1000.2
20260509073838 10 360 0.0 1.6 0.00 0.00 0.00 90 1000.2
20260509072844 10 360 0.0 3.2 0.00 0.00 0.00 90 1000.2
20260509072336 10 360 0.0 3.2 0.00 0.00 0.00 90 1000.2
20260509071349 10 360 0.0 1.6 0.00 0.00 0.00 89 1000.2
20260509070355 10 360 0.0 3.2 0.00 0.00 0.00 89 1000.2
20260509064832 10 360 0.0 0.0 0.00 0.00 0.00 89 1000.2
20260509064326 10 360 0.0 0.0 0.00 0.00 0.00 89 1000.2
20260509063344 11 360 0.0 3.2 0.00 0.00 0.00 88 1000.2
20260509062829 11 360 1.6 3.2 0.00 0.00 0.00 87 1000.2
20260509061845 11 360 0.0 4.8 0.00 0.00 0.00 87 1000.2
20260509061344 11 360 3.2 4.8 0.00 0.00 0.00 87 1000.2
20260509060603 11 360 0.0 1.6 0.00 0.00 0.00 85 1000.2
20260509042841 13 360 0.0 3.2 0.00 0.00 0.00 79 1000.2
20260509041849 13 360 0.0 4.8 0.00 0.00 0.00 77 1000.2
20260509040839 13 360 1.6 8.0 0.00 0.00 0.00 77 1000.2
20260509035844 13 360 0.0 3.2 0.00 0.00 0.00 79 1000.2
20260509034841 13 360 0.0 1.6 0.00 0.00 0.00 78 1000.2
20260509033847 14 360 0.0 3.2 0.00 0.00 0.00 74 1000.2
20260509032849 15 360 3.2 4.8 0.00 0.00 0.00 73 1000.2
20260509032344 15 360 1.6 4.8 0.00 0.00 0.00 72 1000.2
20260509031843 15 360 3.2 6.4 0.00 0.00 0.00 71 1000.2
20260509030852 15 360 3.2 8.0 0.00 0.00 0.00 74 1000.2
20260509025843 15 360 8.0 14.5 0.00 0.00 0.00 73 1000.2
20260509025342 15 360 8.0 16.1 0.00 0.00 0.00 75 1000.2
20260509024838 16 144 11.3 16.1 0.00 0.00 0.00 73 1000.2
20260509023848 16 146 12.9 16.1 0.00 0.00 0.00 71 1000.2
20260509023331 16 360 8.0 17.7 0.00 0.00 0.00 69 1000.2
20260509022354 16 146 11.3 16.1 0.00 0.00 0.00 69 1000.2
20260509021850 16 136 9.7 17.7 0.00 0.00 0.00 70 1000.2
20260509020840 16 121 9.7 12.9 0.00 0.00 0.00 68 1000.2
20260509020337 16 162 6.4 16.1 0.00 0.00 0.00 70 1000.2
20260509015337 16 147 9.7 16.1 0.00 0.00 0.00 70 1000.2
20260509014344 16 171 9.7 19.3 0.00 0.00 0.00 67 1000.2
20260509013340 16 175 11.3 17.7 0.00 0.00 0.00 70 1000.2
20260509012837 16 165 9.7 16.1 0.00 0.00 0.00 70 1000.2
20260509012338 16 117 11.3 17.7 0.00 0.00 0.00 69 1000.2
20260509011350 16 158 12.9 20.9 0.00 0.00 0.00 69 1000.2
20260509010359 16 151 17.7 20.9 0.00 0.00 0.00 70 1000.2
20260509005845 16 150 12.9 17.7 0.00 0.00 0.00 69 1000.2
20260509005345 16 165 9.7 17.7 0.00 0.00 0.00 66 1000.2
20260509004838 16 150 12.9 20.9 0.00 0.00 0.00 67 1000.2
20260509003850 16 130 16.1 22.5 0.00 0.00 0.00 69 1000.2
20260509003351 16 163 6.4 17.7 0.00 0.00 0.00 67 1000.2
20260509002849 16 105 9.7 17.7 0.00 0.00 0.00 68 1000.2
20260509002342 16 124 12.9 19.3 0.00 0.00 0.00 68 1000.2
20260509001344 16 155 9.7 17.7 0.00 0.00 0.00 67 1000.2
20260509000351 16 125 11.3 19.3 0.00 0.00 0.00 65 1000.2